Regional Weather Roundup
Issued by NWS

Home | Current Version | Previous Version | Text Only | Print | Product List | Glossary Off
Versions: 1 2 3 4 5 6 7 8 9 10 11 12 13 14 15 16 17 18 19 20 21 22 23 24 25 26 27 28 29 30 31 32 33 34 35 36 37 38 39 40 41 42 43 44 45 46 47 48 49 50

000
ASUS43 KFSD 221810
RWRSD

WEATHER ROUNDUP FOR SOUTH DAKOTA
NATIONAL WEATHER SERVICE SIOUX FALLS SD
100 PM CDT SAT APR 22 2017

NOTE: "FAIR" INDICATES FEW OR NO CLOUDS BELOW 12,000 FEET WITH NO
SIGNIFICANT WEATHER AND/OR OBSTRUCTIONS TO VISIBILITY.


SDZ001>005-009-010-012>017-221900-
NORTHWEST AND NORTH CENTRAL SOUTH DAKOTA

CITY           SKY/WX    TMP DP  RH WIND       PRES   REMARKS
BUFFALO          N/A     58  40  51 W13       30.15S
FAITH            N/A     61  41  47 W10       30.20F
MOBRIDGE       SUNNY     65  34  31 SW15      30.18F
$$

SDZ012>016-024>037-041>051-057-063-072>074-221900-
SOUTHWEST AND SOUTH CENTRAL SOUTH DAKOTA

CITY           SKY/WX    TMP DP  RH WIND       PRES   REMARKS
RAPID CTY ARPT MOSUNNY   59  38  45 S3        30.23F
PIERRE         SUNNY     62  35  36 SW10G20   30.24F
CUSTER         MOSUNNY   49  29  46 VRB6      30.25F
ELLSWORTH AFB  SUNNY     58  38  47 SE6       30.22F
PHILIP         SUNNY     61  41  47 S8        30.23F
PINE RIDGE     MOSUNNY   58  37  45 CALM      30.26F
SPEARFISH      FAIR      55  37  50 N5G12     30.23S
WINNER         FAIR      62  36  37 CALM      30.27F
$$

SDZ004>011-016>023-039-040-221900-
NORTHEAST SOUTH DAKOTA

CITY           SKY/WX    TMP DP  RH WIND       PRES   REMARKS
ABERDEEN       SUNNY     64  35  34 SW10      30.21F
WATERTOWN      SUNNY     61  37  41 W10G17    30.24F
BROOKINGS      SUNNY     60  37  42 W8        30.25
SISSETON         N/A     65  38  36 W12G20    30.20F
$$

SDZ017-020-022-023-036>040-048>070-221900-
SOUTHEAST SOUTH DAKOTA

CITY           SKY/WX    TMP DP  RH WIND       PRES   REMARKS
SIOUX FALLS    MOSUNNY   63  36  36 VRB3      30.26F
HURON          SUNNY     63  35  35 MISG      30.24F
CHAMBERLAIN    SUNNY     62  37  40 CALM      30.27F
MITCHELL       SUNNY     63  36  36 CALM      30.26F
YANKTON        SUNNY     61  32  33 W3        30.27F
$$

ABBREVIATIONS USED IN REMARKS
   TC - TEMPERATURE IN CELSIUS
  WCI - WIND CHILL INDEX
   HX - HEAT INDEX
  VSB - VISIBILITY




USA.gov is the U.S. government's official web portal to all federal, state and local government web resources and services.